Regional Weather Roundup
Issued by NWS Upton, NY

Current Version | Previous Version | Graphics & Text | Print | Product List | Glossary Off
Versions: 1 2 3 4 5 6 7 8 9 10 11 12 13 14 15 16 17 18 19 20 21 22 23 24 25 26 27 28 29 30 31 32 33 34 35 36 37 38 39 40 41 42 43 44 45 46 47 48 49 50

000
ASUS41 KOKX 300705
RWROKX

REGIONAL WEATHER ROUNDUP
NATIONAL WEATHER SERVICE NEW YORK NY
300 AM EDT SAT AUG 30 2014

NOTE: "FAIR" INDICATES FEW OR NO CLOUDS BELOW 12,000 FEET WITH NO
SIGNIFICANT WEATHER AND/OR OBSTRUCTIONS TO VISIBILITY.

NYZ071-072-176-178-NJZ106-104-300800-
NEW YORK CITY METRO AREA


CITY           SKY/WX    TMP DP  RH WIND       PRES   REMARKS
CENTRAL PARK   PTCLDY    69  55  60 MISG      30.28F
LAGUARDIA APRT PTCLDY    68  55  63 SE5       30.25S
KENNEDY INTL   MOCLDY    67  56  67 SE5       30.26F
NEWARK/LIBERTY MOCLDY    66  55  67 CALM      30.25F
BRNX BOT. GARD   N/A     61  55  82 E2        30.27S
TETERBORO      CLEAR     64  54  69 CALM      30.24F
$$

NYZ177-179-078>081-300800-
LONG ISLAND NEW YORK

CITY           SKY/WX    TMP DP  RH WIND       PRES   REMARKS
FARMINGDALE    MOCLDY    60  55  83 NE3       30.26S
ISLIP          PTCLDY    60  55  83 CALM      30.25S
SHIRLEY        CLEAR     55  53  93 CALM      30.27F
WESTHAMPTON    CLEAR     52  47  83 CALM      30.29S
MONTAUK POINT    N/A     58  54  86 CALM      30.29F
$$

NYZ052-065-067-300800-
HUDSON VALLEY

CITY           SKY/WX    TMP DP  RH WIND       PRES   REMARKS
WHITE PLAINS   CLEAR     58  55  90 CALM      30.26S
NEWBURGH       NOT AVBL
MONTGOMERY     CLEAR     52  50  93 CALM      30.26S
POUGHKEEPSIE   CLEAR     56  54  93 CALM      30.25S
ALBANY         CLEAR     61  55  81 S6        30.23S
$$

NJZ001-105-106-008-010-013-015-019>022-104-300800-
NEW JERSEY

CITY           SKY/WX    TMP DP  RH WIND       PRES   REMARKS
NEWARK/LIBERTY MOCLDY    66  55  67 CALM      30.25F
TETERBORO      CLEAR     64  54  69 CALM      30.24F
CALDWELL       CLEAR     57  53  86 CALM      30.26F
MORRISTOWN     CLEAR     54  50  87 CALM      30.26S
SOMERVILLE     CLEAR     54  52  93 CALM      30.25R
LINDEN         FAIR      67  58  73 CALM      30.27S
SUSSEX         CLEAR     54  51  90 CALM      30.26S
ANDOVER          N/A     54  52  93 CALM      30.27R
TRENTON        CLEAR     57  53  86 CALM      30.25S
MILLVILLE      CLEAR     53  51  93 CALM      30.24S
ATLANTIC CITY  CLEAR     55  53  93 CALM      30.24S
WRIGHTSTOWN    CLEAR     56  55  99 CALM      30.23S
TOMS RIVER     CLEAR     48  45  87 CALM      30.26S
BELMAR         CLEAR     57  48  72 CALM      30.25S
$$

PAZ047>061-062-071-300800-
EASTERN PENNSYLVANIA

CITY           SKY/WX    TMP DP  RH WIND       PRES   REMARKS
PHILADELPHIA   PTCLDY    63  58  83 E5        30.25S
ALLENTOWN      CLEAR     57  54  89 N3        30.25R
SCRANTON       CLEAR     63  57  81 S5        30.24S
$$

CTZ002-004>006-009-010-012-RIZ004-006-007-MAZ004-011-015-300800-
SOUTHERN NEW ENGLAND
 IN CT

CITY           SKY/WX    TMP DP  RH WIND       PRES   REMARKS
BRADLEY INTL   CLEAR     58  53  84 CALM      30.27S
HARTFORD       CLEAR     57  55  93 CALM      30.27F
DANBURY        CLEAR     54  51  90 CALM      30.28F
WTRBRY/OXFORD  CLEAR     55  50  82 CALM      30.29S
BRIDGEPORT     CLEAR     68  58  70 S8        30.26F
MERIDEN        CLEAR     53  51  93 CALM      30.28S FOG
NEW HAVEN      PTCLDY    67  58  72 S8        30.27S
CHESTER        FAIR      57  55  94 CALM      30.29S
GROTON         CLEAR     55  54  96 CALM      30.27F
WILLIMANTIC    PTCLDY    53  51  93 CALM      30.29F

 IN RI

CITY           SKY/WX    TMP DP  RH WIND       PRES   REMARKS
PROVIDENCE     CLEAR     57  54  89 CALM      30.30S
BLOCK ISLAND   CLEAR     61  54  77 SE5       30.29S
WESTERLY       CLEAR     53  51  93 CALM      30.29S

 IN MA

CITY           SKY/WX    TMP DP  RH WIND       PRES   REMARKS
BOSTON         CLEAR     59  55  87 S6        30.29F
WORCESTER      CLEAR     56  54  93 SW7       30.29S
WESTFIELD      CLEAR     55  52  89 CALM      30.27S
PROVINCETOWN   CLEAR     48  45  87 S5        30.31S
NANTUCKET      CLEAR     51  46  83 CALM      30.31R
$$

ANZ330-335-338-340-345-350-353-355-300800-
COASTAL MARINE OBSERVATIONS


STATION/POSITION TIME  SKY/WX   TEMP    WIND        PRES    VSBY  WAVE
                                AIR SEA DIR/SP/G                  HT/PER
                 (UTC)          (F)     (DEG/KT/KT) (MB)    (MI)  (FT/S)
NY HARB ENTRANCE NOT AVBL
4S FIRE IS       NOT AVBL
23SW MTP         0700                                 N/A           3/ 8
HUDSON CANYON    0700            70 72  120/ 10/ 12 1024.3          3/ 8
EXECUTION ROCKS  0700            67 73  110/  6/  8   N/A
WESTERN LI SOUND 0700            68     150/  6/  8   N/A           0
CENTRAL LI SOUND 0600            68 72  180/ 10/ 12   N/A           1/ 2
EASTERN LI SOUND 0600            67 69  160/  8/ 10   N/A
ROBBINS REEF     0700            69     180/  9/ 10   N/A
$$


>>>>>>>>>>>>>>>>>>>>>>>>>>>> KEY <<<<<<<<<<<<<<<<<<<<<<<<<<<
>                                                          <
>     SKY/WX - SKY CONDITION/PRESENT WEATHER               <
>     TMP    - TEMPERATURE IN FAHRENHEIT                   <
>     DP     - DEWPOINT IN FAHRENHEIT                      <
>     RH     - RELATIVE HUMIDITY IN PERCENT                <
>     WIND   - DIRECTION AND SPEED IN MPH                  <
>     PRES   - MEAN SEA LEVEL PRESSURE IN INCHES OF HG     <
>     WCI    - WIND CHILL INDEX                            <
>     VSB    - VISIBILITY IN MILES                         <
>     HX     - HEAT INDEX                                  <
>     TC     - TEMPERATURE IN CELSIUS                      <
>     VRB    - VARIABLE WIND DIRECTION                     <
>                                                          <
>>>>>>>>>>>>>>>>>>>>>>>>>>>> KEY <<<<<<<<<<<<<<<<<<<<<<<<<<<





USA.gov is the U.S. government's official web portal to all federal, state and local government web resources and services.